Weather past 2 weeks in Port-aux-Francais, Kerguelen Islands

Now
33 °F

Chilly.


Feels Like: 19 °F
Forecast: 35 / 40 °F
Wind: 29 mph from Northwest

Location: Port-Aux-Francais Iles Kerguelen

Current Time: Jul 24, 2014 at 2:19:05 PM

Latest Report: Jul 24, 2014 at 1:00 PM


Visibility: N/A

Pressure: 29.60 "Hg

Humidity: 85%

Dew point: 29 °F

Location of Port-aux-FrancaisLocation

Historic Weather in Port-aux-Francais — Graph

°F

Port-aux-Francais temperature yesterday

Maximum temperature yesterday: 29 °F (at 10:00 PM)
Minimum temperature yesterday: 24 °F (at 8:00 AM)
Average temperature yesterday: 26 °F

Past Weeks' High & Low Weather Summary

 TemperatureHumidityPressure
High50 °F (Jul 14, 8:00 PM)100% (Jul 12, 3:00 AM)29.92 "Hg (Jul 12, 3:00 AM)
Low22 °F (Jul 19, 7:00 PM)58% (Jul 11, 9:00 PM)28.50 "Hg (Jul 21, 3:00 AM)
Average36 °F84%29.19 "Hg
* Reported Jul 9 6:00 PM — Jul 24 1:00 PM, Port-aux-Francais, Weather by CustomWeather, © 2014

Note: Actual official high and low records may vary slightly from our data, if they occured in-between our weather recording intervals... More about our weather records

Advertising

Port-aux-Francais weather history for previous 24 hours

 ConditionsComfort  
Time TempWeatherWind HumidityBarometerVisibility
1:00 PM
Jul 24
33 °FChilly.29 mph85%29.60 "HgN/A
12:00 PM31 °FChilly.24 mph83%29.68 "HgN/A
11:00 AM31 °FOvercast.15 mph70%29.75 "Hg9 mi
10:00 AM30 °FChilly.14 mph71%29.79 "HgN/A
9:00 AM29 °FChilly.14 mph70%29.82 "HgN/A
8:00 AM29 °FOvercast.17 mph66%29.83 "Hg9 mi
7:00 AM29 °FChilly.23 mph69%29.83 "HgN/A
6:00 AM30 °FChilly.32 mph67%29.82 "HgN/A
5:00 AM30 °FOvercast.28 mph68%29.82 "Hg9 mi
4:00 AM29 °FChilly.29 mph79%29.80 "HgN/A
3:00 AM29 °FChilly.28 mph80%29.78 "HgN/A
1:00 AM28 °FChilly.30 mph86%29.72 "HgN/A
12:00 AM26 °FChilly.28 mph95%29.71 "HgN/A
11:00 PM
Jul 23
26 °FChilly.26 mph95%29.69 "HgN/A
10:00 PM29 °FChilly.31 mph68%29.64 "HgN/A
9:00 PM28 °FChilly.31 mph76%29.60 "HgN/A
8:00 PM26 °FChilly.32 mph90%29.56 "HgN/A
7:00 PM26 °FChilly.29 mph95%29.50 "HgN/A
6:00 PM28 °FChilly.26 mph76%29.47 "HgN/A
Weather by CustomWeather, © 2014

See weather overviewHow to use our weather pages